FENGYUN 1C DEB, 31487

Orbit data source: Space-Track

FENGYUN 1C DEB, 31487 is space debris in SSO originally from a launch on Mon, 10 May 1999 UTC launched from the Taiyaun Space Center, China (TSC). Fengyun 1C debris stems from the Chinese weather satellite Fengyun-1C, which was intentionally destroyed by a Chinese anti-satellite missile in 2007. This event dramatically increased the amount of space debris, with thousands of trackable fragments posing hazards to satellites and human spaceflight. The Fengyun 1C debris cloud has become a focal point in discussions about space sustainability and the need for international regulations to prevent the creation of new debris.

Loading next visibility...
Identifier
31487, 1999-025BWB
Orbit
SSO
Country
Flag of CNCN / PRC
Related business
Manufacturer
Unknown
Mission
Spacecraft
Bus & Motor
Unknown
Mass
Unknown
Launch date (UTC)
1999-05-10 (27 years ago)
Launch vehicle
Unknown
Launch site
Taiyaun Space Center, China (TSC)
Object type
Payload
Rocket body
Debris
Shape & HBR
Unknown shape, 0.1 m
Radar Cross Section
Medium (>0.1 m² and <1 m²)

Expand to show TLE details & history
Last TLE update: 9 hours ago

TLE from 9 hours ago
0 FENGYUN 1C DEB
1 31487U 99025BWB 26257.23937584  .00001121  00000-0  78076-3 0  9997
2 31487 102.4032 166.6975 0119646   0.9166 150.2233 13.98715501982629
Epoch: 2026-09-14T05:44Z
TLE epoch observation values (Epoch: 2026-09-14T05:44:42.072Z)
Latitude
27.51609°
Longitude
-86.15616°
Altitude
977.281 km
Speed
7.327 km/s
True Right ascension
23h 32m 57s
True Declination
27° 22' 47"
Sunlit
Object was in full shadow at epoch
Visualization orbit readout
Latitude
Unknown
Longitude
Unknown
Altitude
Unknown
Speed
Unknown
Apparent Right ascension
Unknown
Apparent Declination
Unknown
Sunlit
N/A
Visualization observer readout
Local Sidereal Time
07:37:46
Azimuth
Unknown
Elevation
Unknown
Doppler factor
Unknown
Orbital elements
Apogee altitude
982.672 km
Perigee altitude
808.616 km
Semi-major axis
7,273.781 km
Eccentricity
0.01196
Inclination
102.4032°
RAAN
166.6975°
Arg. of periapsis
0.9166°
True anomaly
150.89544°
Mean anomaly
150.2233°
Eccentric anomaly
150.56024°
Mean motion
3.49867 °/min
Orbital period
102.9 mins
BSTAR
0.00078076
Loading maneuver chart data...
Computing Atmospheric mass density...

Documentation

Showing up to 5 results
|